Location: Antioch Baptist Church
(32.7160°N, 96.7483°W)
Time: 07:33:45
(UTC+00:00)

Cosmos 1437 Rocket - Visible Passes

Search period start: 21 May 2024 00:00
Search period end: 31 May 2024 00:00
Orbit: 480 x 533 km, 81.2° (Epoch: 20 May)

Date Brightness Start Highest point End Pass type
(mag) Time Alt. Az. Time Alt. Az. Time Alt. Az.
27 May 4.9 10:41:02 10° SSE 10:44:24 28° E 10:47:48 10° NNE visible
28 May 5.3 10:23:27 10° SE 10:26:28 21° E 10:29:30 10° NE visible
29 May 5.6 10:06:03 10° SE 10:08:31 16° E 10:11:00 10° NE visible
30 May 5.7 09:48:56 10° ESE 09:50:34 12° E 09:52:12 10° ENE visible
